[[{"header":{"parameterUnit":"m.s-1","parameterCategory":1,"la1":30.2991,"la2":30.254,"lo1":-89.0895,"lo2":-89.0444,"dy":0.0017,"dx":0.0017,"nx":28,"ny":28,"refTime":"2025-01-15T09:00:00:Z","depth":0,"parameterNumber":2,"parameterNumberName":"U-component_of_WINDS"},"data":[0,0,0,0,0,0,0,0,0,0,0,0,0,0,0,0,0,0,0,0,0,0,0,0,0,0,0,0,0,0,0,0,0,0,0,0,0,0,0,0,0,0,0,0,0,0,0,0,0,0,0,0,0,0,0,0,0,0,0.5492,0.5492,0,0.5543,0.5543,0.5544,0.5603,0.5604,0.5605,0.5606,0.5656,0.5656,0.5657,0,0,0,0,0,0,0,0,0,0,0,0,0,0.5443,0.5444,0.5492,0.5492,0.5493,0.5542,0.5543,0.5544,0.5603,0.5604,0.5605,0.5606,0.5655,0.5656,0.5657,0,0,0,0,0,0,0,0,0,0,0,0,0,0.5476,0.5444,0.5491,0.5528,0.5532,0.5542,0.5543,0.5544,0.5603,0.5604,0.5605,0.5606,0.5655,0.5656,0.5657,0.5634,0,0,0.5659,0.5659,0,0,0,0,0,0,0,0,0.5474,0.5478,0.5522,0.5526,0.553,0.5568,0.5545,0.5574,0.5602,0.5576,0.5606,0.5607,0.5625,0.5628,0.5635,0.5637,0.5639,0.5659,0.566,0.566,0.566,0,0,0,0,0,0,0,0.5472,0.5476,0.5512,0.5523,0.5528,0.5542,0.5548,0.555,0.5592,0.5578,0.5583,0.5588,0.5628,0.5634,0.5637,0.5639,0.5659,0.566,0.566,0.566,0.5624,0.5623,0,0,0,0,0,0,0.5464,0.5474,0.551,0.5513,0.5505,0.5541,0.5548,0.5554,0.5592,0.5599,0.5587,0.559,0.5632,0.5636,0.5639,0.5614,0.566,0.5661,0.5661,0.5626,0.5624,0.5622,0,0,0,0,0,0,0.5463,0.5467,0.5508,0.5495,0.5501,0.5541,0.5547,0.5555,0.5561,0.5599,0.5606,0.5586,0.5633,0.5638,0.5635,0.5616,0.5661,0.5662,0.5627,0.5625,0.5623,0.5564,0,0,0,0,0,0,0.5461,0.5466,0.5458,0.5494,0.5502,0.5504,0.5546,0.5555,0.5563,0.5568,0.56,0.5607,0.5635,0.5633,0.5635,0.5618,0.5662,0.5629,0.5626,0.5624,0.5568,0.556,0.5554,0,0,0,0,0,0.5459,0.544,0.5458,0.5462,0.5493,0.5503,0.5507,0.554,0.5561,0.5553,0.5577,0.5606,0.5618,0.5633,0.5636,0.5618,0.563,0.5627,0.5624,0.5571,0.5562,0.5554,0,0,0,0,0,0,0.54,0.5445,0.5466,0.5457,0.5475,0.5512,0.5503,0.5529,0.5542,0.5546,0.5587,0.5594,0.5586,0.5602,0.5617,0.5598,0.5628,0.5626,0.5587,0.5579,0.5572,0.5567,0.5663,0,0,0,0,0,0.5386,0.5391,0.543,0.5418,0.5426,0.5463,0.5469,0.5493,0.5514,0.5522,0.5546,0.5564,0.5572,0.5577,0.5586,0.5571,0.5578,0.556,0.5553,0.5547,0.5544,0.5536,0.5528,0.5612,0.5612,0.5612,0,0,0.5357,0.5382,0.5382,0.5407,0.5424,0.5427,0.5469,0.5471,0.5474,0.5522,0.552,0.5539,0.5562,0.5552,0.5549,0.5566,0.5522,0.5543,0.5538,0.5538,0.5531,0.5523,0.5516,0.561,0.561,0.561,0,0,0.5304,0.5325,0.5317,0.5333,0.5359,0.5384,0.5382,0.5415,0.5429,0.5429,0.5465,0.5468,0.5482,0.5497,0.5506,0.546,0.5485,0.5462,0.5424,0.5415,0.5409,0.5403,0.5385,0.5378,0.5459,0.5458,0.5458,0,0.5264,0.5271,0.5309,0.5309,0.5318,0.5363,0.5354,0.5368,0.5396,0.54,0.5419,0.5436,0.5455,0.5449,0.5438,0.5444,0.5442,0.5457,0.5407,0.5401,0.5397,0.538,0.5373,0.5455,0.5456,0.5456,0.5456,0,0.522,0.5224,0.5215,0.524,0.5249,0.5244,0.528,0.5284,0.5308,0.533,0.5329,0.5353,0.5368,0.5369,0.5392,0.5366,0.5375,0.54,0.5431,0.5385,0.5369,0.5363,0.5451,0.5452,0.5453,0.5453,0,0,0.513,0.5177,0.5173,0.5185,0.5217,0.5221,0.5218,0.5233,0.5235,0.5253,0.525,0.5261,0.5284,0.5294,0.532,0.5312,0.5272,0.5338,0.5339,0.5323,0.5243,0.5222,0.5214,0.529,0.5289,0.5289,0.524,0,0.5082,0.508,0.5115,0.5103,0.5107,0.515,0.5147,0.5166,0.5187,0.5193,0.5216,0.5222,0.5253,0.5259,0.5254,0.5278,0.5256,0.5282,0.5287,0.5287,0.5278,0.5207,0.5185,0.5138,0.5234,0.5234,0.5233,0,0.5026,0.504,0.5029,0.5061,0.5064,0.5061,0.5078,0.5083,0.5105,0.5121,0.5133,0.5162,0.5161,0.5192,0.519,0.5207,0.5211,0.5223,0.5222,0.5222,0.5255,0.5202,0.5124,0.5116,0.5224,0.5225,0.5225,0,0.4959,0.4976,0.4971,0.4981,0.5019,0.5015,0.5031,0.5055,0.5061,0.5076,0.508,0.5094,0.5101,0.5111,0.5142,0.5162,0.5136,0.517,0.5147,0.5146,0.5138,0.5138,0.5057,0.5144,0.5144,0.5145,0.5145,0,0.4901,0.4891,0.4942,0.4938,0.4929,0.4969,0.4959,0.4978,0.4999,0.5,0.5038,0.5038,0.5081,0.5085,0.511,0.5104,0.5107,0.5119,0.5125,0.5114,0.5112,0.5116,0.5119,0.5143,0.5143,0.5144,0.5144,0,0.4823,0.4857,0.4854,0.4891,0.49,0.4891,0.4922,0.492,0.4944,0.4944,0.4947,0.4984,0.4991,0.5024,0.5039,0.5056,0.504,0.5054,0.5032,0.5036,0.5011,0.5012,0.4928,0.4918,0.5013,0.5012,0.5011,0,0.4783,0.4777,0.4813,0.4816,0.483,0.4836,0.4843,0.4882,0.4887,0.4912,0.4907,0.4917,0.4927,0.4936,0.4964,0.4975,0.4989,0.4959,0.499,0.4979,0.4986,0.4985,0.4983,0.4951,0.4949,0.4948,0.4948,0,0.4706,0.4723,0.4733,0.4747,0.4755,0.4769,0.4784,0.4785,0.4828,0.4832,0.484,0.4848,0.4863,0.4872,0.4888,0.4904,0.4932,0.4938,0.4933,0.492,0.4907,0.4912,0.5011,0.4939,0.494,0.494,0.4941,0.4941,0.4645,0.4641,0.4666,0.4675,0.4691,0.4704,0.4704,0.4728,0.4736,0.4751,0.4774,0.4778,0.4801,0.4825,0.4838,0.4842,0.4858,0.4851,0.4849,0.4846,0.484,0.4908,0.4845,0.4845,0.4846,0.4846,0.4846,0,0.4569,0.4587,0.4595,0.4616,0.4622,0.465,0.4669,0.4672,0.4676,0.4695,0.4704,0.4712,0.4721,0.475,0.4762,0.4759,0.4772,0.4761,0.476,0.4763,0.4826,0.4828,0.475,0.475,0.475,0.475,0.475,0.475,0.453,0.4525,0.4544,0.4547,0.4566,0.457,0.4579,0.4591,0.4606,0.4614,0.4622,0.4641,0.4663,0.4677,0.4686,0.4695,0.4696,0.468,0.4692,0.4749,0.4758,0.4767,0.4769,0.468,0.468,0.4628,0.4628,0.4627]},{"header":{"parameterUnit":"m.s-1","parameterCategory":1,"la1":30.2991,"la2":30.254,"lo1":-89.0895,"lo2":-89.0444,"dy":0.0017,"dx":0.0017,"nx":28,"ny":28,"refTime":"2025-01-15T09:00:00:Z","depth":0,"parameterNumber":3,"parameterNumberName":"V-component_of_WINDS"},"data":[0,0,0,0,0,0,0,0,0,0,0,0,0,0,0,0,0,0,0,0,0,0,0,0,0,0,0,0,0,0,0,0,0,0,0,0,0,0,0,0,0,0,0,0,0,0,0,0,0,0,0,0,0,0,0,0,0,0,-0.7959,-0.7959,0,-0.8008,-0.8008,-0.8009,-0.7996,-0.7995,-0.7994,-0.7993,-0.8043,-0.8046,-0.8048,0,0,0,0,0,0,0,0,0,0,0,0,0,-0.7855,-0.7857,-0.7959,-0.7959,-0.796,-0.8008,-0.8008,-0.8009,-0.7996,-0.7995,-0.7994,-0.7993,-0.8043,-0.8045,-0.8048,0,0,0,0,0,0,0,0,0,0,0,0,0,-0.7902,-0.7857,-0.7959,-0.7959,-0.796,-0.8007,-0.8008,-0.8009,-0.7996,-0.7995,-0.7994,-0.7992,-0.8042,-0.8045,-0.8048,-0.8098,0,0,-0.8059,-0.806,0,0,0,0,0,0,0,0,-0.7899,-0.7905,-0.7959,-0.7959,-0.796,-0.7994,-0.799,-0.8039,-0.7997,-0.7983,-0.7993,-0.7991,-0.8028,-0.8033,-0.8045,-0.8101,-0.8103,-0.8059,-0.8061,-0.8062,-0.8063,0,0,0,0,0,0,0,-0.7896,-0.7903,-0.7978,-0.7959,-0.796,-0.7957,-0.7962,-0.7999,-0.8013,-0.7984,-0.7983,-0.7989,-0.8028,-0.8042,-0.8046,-0.8104,-0.8059,-0.8062,-0.8064,-0.8065,-0.8204,-0.8206,0,0,0,0,0,0,-0.7892,-0.7901,-0.7976,-0.798,-0.7925,-0.796,-0.7966,-0.7985,-0.8013,-0.8015,-0.799,-0.7988,-0.8037,-0.8042,-0.8048,-0.8109,-0.8062,-0.8066,-0.8068,-0.8202,-0.8204,-0.8206,0,0,0,0,0,0,-0.789,-0.7899,-0.7975,-0.794,-0.7949,-0.7964,-0.7985,-0.7986,-0.8,-0.8017,-0.802,-0.8001,-0.8036,-0.8043,-0.8086,-0.8111,-0.8067,-0.807,-0.82,-0.8203,-0.8205,-0.8232,0,0,0,0,0,0,-0.7887,-0.7898,-0.7917,-0.794,-0.7951,-0.8012,-0.7986,-0.7988,-0.8006,-0.8004,-0.8029,-0.8031,-0.8035,-0.8081,-0.809,-0.8115,-0.8073,-0.8198,-0.8202,-0.8205,-0.8229,-0.8235,-0.824,0,0,0,0,0,-0.7883,-0.7922,-0.7918,-0.7927,-0.7975,-0.8013,-0.802,-0.8023,-0.8008,-0.8027,-0.8039,-0.803,-0.8107,-0.8086,-0.8095,-0.8122,-0.8197,-0.8201,-0.8204,-0.8227,-0.8234,-0.824,0,0,0,0,0,0,-0.7901,-0.7925,-0.7921,-0.7969,-0.7989,-0.8011,-0.8036,-0.8031,-0.8056,-0.8053,-0.8057,-0.8063,-0.8107,-0.8118,-0.8095,-0.8172,-0.8149,-0.8155,-0.8163,-0.817,-0.8176,-0.8173,-0.8076,0,0,0,0,0,-0.7911,-0.7939,-0.7959,-0.7999,-0.801,-0.8021,-0.8038,-0.8039,-0.806,-0.8069,-0.8083,-0.8105,-0.8133,-0.8152,-0.818,-0.823,-0.8236,-0.8253,-0.8259,-0.8263,-0.8269,-0.8298,-0.8306,-0.8219,-0.8219,-0.8219,0,0,-0.7931,-0.7947,-0.7965,-0.8003,-0.8019,-0.805,-0.8028,-0.8061,-0.8084,-0.8074,-0.8116,-0.8127,-0.8151,-0.8199,-0.822,-0.821,-0.8294,-0.8268,-0.8272,-0.8275,-0.8302,-0.8311,-0.8318,-0.8221,-0.8221,-0.822,0,0,-0.7983,-0.7998,-0.8034,-0.8051,-0.8075,-0.8083,-0.8091,-0.8114,-0.8122,-0.8164,-0.8157,-0.8184,-0.8233,-0.8251,-0.8267,-0.8327,-0.8321,-0.8335,-0.8365,-0.8394,-0.84,-0.8407,-0.8429,-0.8437,-0.834,-0.834,-0.834,0,-0.8005,-0.805,-0.8053,-0.8087,-0.8104,-0.8097,-0.8134,-0.815,-0.8182,-0.8194,-0.8182,-0.8244,-0.8259,-0.8312,-0.8326,-0.8339,-0.8349,-0.8333,-0.8399,-0.8405,-0.8411,-0.8433,-0.8441,-0.8342,-0.8342,-0.8342,-0.8341,0,-0.8077,-0.8108,-0.8134,-0.8166,-0.8186,-0.8222,-0.823,-0.825,-0.825,-0.8259,-0.8302,-0.832,-0.8352,-0.8364,-0.8364,-0.8417,-0.841,-0.8398,-0.8376,-0.8421,-0.8442,-0.845,-0.8344,-0.8344,-0.8343,-0.8343,0,0,-0.8142,-0.8176,-0.8185,-0.82,-0.8227,-0.8252,-0.8287,-0.8318,-0.8336,-0.8358,-0.8388,-0.843,-0.842,-0.8438,-0.8439,-0.8464,-0.8512,-0.8449,-0.845,-0.8462,-0.8573,-0.8583,-0.8592,-0.8508,-0.8509,-0.851,-0.8572,0,-0.8198,-0.826,-0.8264,-0.832,-0.835,-0.8344,-0.8374,-0.8394,-0.8404,-0.843,-0.844,-0.8471,-0.8454,-0.8465,-0.8489,-0.8501,-0.8535,-0.8496,-0.8537,-0.8538,-0.8532,-0.8603,-0.8613,-0.867,-0.8579,-0.8581,-0.8582,0,-0.8272,-0.8297,-0.8356,-0.838,-0.8393,-0.842,-0.845,-0.8475,-0.8498,-0.8503,-0.8523,-0.8521,-0.8558,-0.8534,-0.8585,-0.8559,-0.8575,-0.8584,-0.8586,-0.8591,-0.8564,-0.8611,-0.8688,-0.8697,-0.8594,-0.8593,-0.8592,0,-0.8315,-0.8364,-0.8406,-0.8419,-0.8447,-0.8467,-0.848,-0.8501,-0.852,-0.8545,-0.8558,-0.8587,-0.8604,-0.8627,-0.8633,-0.8615,-0.8685,-0.866,-0.8691,-0.8691,-0.8707,-0.8706,-0.8789,-0.8715,-0.8715,-0.8715,-0.8715,0,-0.8378,-0.8415,-0.8427,-0.8453,-0.8494,-0.8498,-0.8539,-0.8551,-0.857,-0.8599,-0.8594,-0.8621,-0.8628,-0.8656,-0.8661,-0.8704,-0.8711,-0.8716,-0.8718,-0.8718,-0.8717,-0.873,-0.8726,-0.8717,-0.8717,-0.8716,-0.8716,0,-0.8434,-0.8443,-0.8489,-0.8512,-0.8519,-0.8549,-0.8569,-0.8594,-0.8603,-0.8639,-0.8648,-0.8662,-0.8695,-0.8704,-0.8743,-0.8747,-0.8797,-0.8794,-0.879,-0.879,-0.8821,-0.8818,-0.8916,-0.8929,-0.8845,-0.8846,-0.8847,0,-0.8475,-0.8503,-0.8529,-0.8548,-0.8562,-0.8593,-0.8612,-0.8617,-0.8637,-0.8666,-0.8688,-0.8721,-0.8748,-0.8801,-0.8815,-0.8846,-0.8844,-0.8876,-0.8849,-0.8848,-0.8846,-0.8845,-0.8849,-0.8882,-0.8883,-0.8883,-0.8884,0,-0.8546,-0.8549,-0.8577,-0.8607,-0.863,-0.8654,-0.8677,-0.8692,-0.8701,-0.8724,-0.8758,-0.8779,-0.882,-0.8853,-0.8884,-0.8897,-0.8893,-0.8892,-0.8901,-0.8902,-0.8899,-0.8903,-0.8806,-0.889,-0.889,-0.8889,-0.8889,-0.8889,-0.8596,-0.8622,-0.8645,-0.8676,-0.8694,-0.8716,-0.8741,-0.8753,-0.8782,-0.8815,-0.8817,-0.8854,-0.8877,-0.8918,-0.8933,-0.8963,-0.8954,-0.8966,-0.897,-0.8973,-0.8976,-0.8893,-0.8969,-0.8968,-0.8968,-0.8968,-0.8968,0,-0.8668,-0.8683,-0.8712,-0.8744,-0.8769,-0.8762,-0.8787,-0.8809,-0.8842,-0.8864,-0.889,-0.893,-0.8962,-0.8979,-0.9011,-0.9032,-0.903,-0.904,-0.9039,-0.9043,-0.8982,-0.8972,-0.9041,-0.9041,-0.9041,-0.904,-0.904,-0.904,-0.8709,-0.8752,-0.8758,-0.8811,-0.8825,-0.8862,-0.8877,-0.8897,-0.8914,-0.8959,-0.8986,-0.8996,-0.9016,-0.905,-0.908,-0.9083,-0.9096,-0.9107,-0.911,-0.9054,-0.9047,-0.904,-0.903,-0.911,-0.911,-0.9168,-0.9169,-0.9169]}]]